• In Netherlands
  • List of Countries
  • For 7 days
  • Water Temperature
  • Satellite Maps
  • Weather Map
  • Weather Widgets
  • user-avatar
    Login

    Hourly Weather Batina

    Today, 25 June, Sunday

    Time Temperature Precipitation Wind Pressure Humidity
    00:00 +23°C° 0 mm 1 mps 674 mmHg 53%
    01:00 +23°C° 0 mm 1 mps 673 mmHg 52%
    02:00 +23°C° 0 mm 1 mps 673 mmHg 52%
    03:00 +22°C° 0 mm 1 mps 673 mmHg 52%
    04:00 +23°C° 0 mm 1 mps 673 mmHg 47%
    05:00 +24°C° 0 mm 1 mps 673 mmHg 42%
    06:00 +26°C° 0 mm 2 mps 674 mmHg 37%
    07:00 +28°C° 0 mm 2 mps 674 mmHg 32%
    08:00 +29°C° 0 mm 3 mps 675 mmHg 28%
    09:00 +32°C° 0 mm 4 mps 675 mmHg 24%
    10:00 +33°C° 0 mm 4 mps 675 mmHg 22%
    11:00 +34°C° 0 mm 4 mps 675 mmHg 20%
    12:00 +35°C° 0 mm 4 mps 675 mmHg 18%
    13:00 +35°C° 0 mm 4 mps 675 mmHg 17%
    14:00 +36°C° 0 mm 4 mps 674 mmHg 17%
    15:00 +36°C° 0 mm 4 mps 674 mmHg 16%
    16:00 +35°C° 0 mm 3 mps 674 mmHg 18%
    17:00 +34°C° 0 mm 3 mps 673 mmHg 19%
    18:00 +33°C° 0 mm 3 mps 673 mmHg 21%
    19:00 +30°C° 0 mm 2 mps 673 mmHg 25%
    20:00 +28°C° 0 mm 2 mps 673 mmHg 30%
    21:00 +27°C° 0 mm 1 mps 673 mmHg 34%
    22:00 +26°C° 0 mm 1 mps 672 mmHg 35%
    23:00 +26°C° 0 mm 1 mps 672 mmHg 35%

    Tomorrow, 26 June, Monday

    Time Temperature Precipitation Wind Pressure Humidity
    00:00 +25°C° 0 mm 1 mps 672 mmHg 35%
    01:00 +25°C° 0 mm 1 mps 672 mmHg 35%
    02:00 +25°C° 0 mm 2 mps 671 mmHg 34%
    03:00 +24°C° 0 mm 2 mps 671 mmHg 34%
    04:00 +25°C° 0 mm 2 mps 671 mmHg 32%
    05:00 +26°C° 0 mm 2 mps 672 mmHg 30%
    06:00 +27°C° 0 mm 3 mps 672 mmHg 28%
    07:00 +29°C° 0 mm 3 mps 673 mmHg 24%
    08:00 +33°C° 0 mm 4 mps 673 mmHg 20%
    09:00 +35°C° 0 mm 5 mps 674 mmHg 16%
    10:00 +36°C° 0 mm 5 mps 674 mmHg 15%
    11:00 +37°C° 0 mm 5 mps 674 mmHg 14%
    12:00 +39°C° 0 mm 5 mps 674 mmHg 12%
    13:00 +39°C° 0 mm 5 mps 673 mmHg 12%
    14:00 +40°C° 0 mm 5 mps 673 mmHg 12%
    15:00 +40°C° 0 mm 5 mps 673 mmHg 12%
    16:00 +38°C° 0 mm 4 mps 672 mmHg 13%
    17:00 +37°C° 0 mm 3 mps 672 mmHg 14%
    18:00 +36°C° 0 mm 2 mps 672 mmHg 16%
    19:00 +34°C° 0 mm 2 mps 672 mmHg 18%
    20:00 +31°C° 0 mm 2 mps 672 mmHg 21%
    21:00 +29°C° 0 mm 2 mps 672 mmHg 23%
    22:00 +28°C° 0 mm 2 mps 672 mmHg 26%
    23:00 +28°C° 0 mm 1 mps 672 mmHg 29%

    Day after tomorrow, 27 June, Tuesday

    Time Temperature Precipitation Wind Pressure Humidity
    00:00 +27°C° 0 mm 1 mps 672 mmHg 31%
    01:00 +27°C° 0 mm 1 mps 671 mmHg 31%
    02:00 +26°C° 0 mm 1 mps 671 mmHg 32%
    03:00 +26°C° 0 mm 1 mps 671 mmHg 32%
    04:00 +27°C° 0 mm 1 mps 671 mmHg 30%
    05:00 +28°C° 0 mm 1 mps 671 mmHg 27%
    06:00 +29°C° 0 mm 1 mps 672 mmHg 25%
    07:00 +31°C° 0 mm 2 mps 672 mmHg 22%
    08:00 +34°C° 0 mm 2 mps 673 mmHg 19%
    09:00 +36°C° 0 mm 3 mps 674 mmHg 16%
    10:00 +38°C° 0 mm 3 mps 674 mmHg 15%
    11:00 +40°C° 0 mm 4 mps 674 mmHg 14%
    12:00 +41°C° 0 mm 4 mps 674 mmHg 13%
    13:00 +40°C° 0 mm 4 mps 673 mmHg 13%
    14:00 +40°C° 0 mm 5 mps 673 mmHg 13%
    15:00 +40°C° 0 mm 5 mps 672 mmHg 13%
    16:00 +38°C° 0.1 mm 4 mps 672 mmHg 15%
    17:00 +37°C° 0.1 mm 3 mps 672 mmHg 16%
    18:00 +35°C° 0.1 mm 2 mps 672 mmHg 18%
    19:00 +34°C° 0 mm 2 mps 672 mmHg 21%
    20:00 +32°C° 0 mm 2 mps 672 mmHg 23%
    21:00 +30°C° 0 mm 2 mps 672 mmHg 26%
    22:00 +29°C° 0 mm 2 mps 671 mmHg 27%
    23:00 +29°C° 0 mm 2 mps 671 mmHg 29%

    28 June, Wednesday

    Time Temperature Precipitation Wind Pressure Humidity
    00:00 +28°C° 0 mm 2 mps 671 mmHg 30%
    01:00 +27°C° 0 mm 2 mps 670 mmHg 30%
    02:00 +27°C° 0 mm 2 mps 670 mmHg 29%
    03:00 +26°C° 0 mm 2 mps 670 mmHg 28%
    04:00 +27°C° 0 mm 2 mps 670 mmHg 26%
    05:00 +28°C° 0 mm 2 mps 671 mmHg 24%
    06:00 +29°C° 0 mm 2 mps 671 mmHg 22%
    07:00 +31°C° 0 mm 3 mps 671 mmHg 19%
    08:00 +34°C° 0 mm 5 mps 672 mmHg 15%
    09:00 +38°C° 0 mm 6 mps 672 mmHg 12%
    10:00 +38°C° 0 mm 7 mps 672 mmHg 11%
    11:00 +39°C° 0 mm 8 mps 672 mmHg 11%
    12:00 +40°C° 0 mm 9 mps 672 mmHg 10%
    13:00 +40°C° 0 mm 9 mps 672 mmHg 9%
    14:00 +40°C° 0 mm 9 mps 671 mmHg 9%
    15:00 +40°C° 0 mm 9 mps 671 mmHg 9%
    16:00 +39°C° 0 mm 8 mps 671 mmHg 10%
    17:00 +38°C° 0 mm 7 mps 671 mmHg 11%
    18:00 +36°C° 0 mm 6 mps 670 mmHg 12%
    19:00 +33°C° 0 mm 4 mps 670 mmHg 21%
    20:00 +29°C° 0 mm 3 mps 670 mmHg 29%
    21:00 +27°C° 0 mm 2 mps 670 mmHg 37%
    22:00 +26°C° 0 mm 2 mps 670 mmHg 43%
    23:00 +24°C° 0 mm 2 mps 669 mmHg 50%

    29 June, Thursday

    Time Temperature Precipitation Wind Pressure Humidity
    00:00 +23°C° 0 mm 2 mps 669 mmHg 56%
    01:00 +23°C° 0 mm 2 mps 669 mmHg 59%
    02:00 +21°C° 0 mm 2 mps 669 mmHg 61%
    03:00 +21°C° 0 mm 2 mps 668 mmHg 64%
    04:00 +23°C° 0 mm 2 mps 669 mmHg 58%
    05:00 +24°C° 0 mm 1 mps 669 mmHg 53%
    06:00 +25°C° 0 mm 1 mps 669 mmHg 47%
    07:00 +27°C° 0 mm 1 mps 670 mmHg 38%
    08:00 +30°C° 0 mm 2 mps 671 mmHg 29%
    09:00 +32°C° 0 mm 2 mps 672 mmHg 20%
    10:00 +35°C° 0 mm 3 mps 672 mmHg 17%
    11:00 +36°C° 0 mm 4 mps 672 mmHg 14%
    12:00 +39°C° 0 mm 6 mps 672 mmHg 11%
    13:00 +39°C° 0 mm 6 mps 672 mmHg 11%
    14:00 +39°C° 0 mm 6 mps 671 mmHg 10%
    15:00 +39°C° 0 mm 7 mps 671 mmHg 10%
    16:00 +37°C° 0 mm 5 mps 671 mmHg 12%
    17:00 +36°C° 0 mm 4 mps 671 mmHg 14%
    18:00 +34°C° 0 mm 3 mps 671 mmHg 16%
    19:00 +31°C° 0 mm 3 mps 670 mmHg 22%
    20:00 +29°C° 0 mm 2 mps 670 mmHg 29%
    21:00 +27°C° 0 mm 2 mps 670 mmHg 36%
    22:00 +26°C° 0 mm 2 mps 669 mmHg 40%
    23:00 +25°C° 0 mm 2 mps 669 mmHg 45%

    30 June, Friday

    Time Temperature Precipitation Wind Pressure Humidity
    00:00 +24°C° 0 mm 2 mps 669 mmHg 50%
    01:00 +23°C° 0 mm 2 mps 669 mmHg 53%
    02:00 +23°C° 0 mm 2 mps 668 mmHg 57%
    03:00 +21°C° 0 mm 2 mps 668 mmHg 60%
    04:00 +21°C° 0 mm 2 mps 669 mmHg 58%
    05:00 +23°C° 0 mm 2 mps 669 mmHg 56%
    06:00 +23°C° 0 mm 2 mps 669 mmHg 54%
    07:00 +26°C° 0 mm 2 mps 670 mmHg 43%
    08:00 +29°C° 0 mm 3 mps 671 mmHg 33%
    09:00 +33°C° 0 mm 4 mps 671 mmHg 22%
    10:00 +35°C° 0 mm 5 mps 671 mmHg 19%
    11:00 +38°C° 0 mm 6 mps 671 mmHg 15%
    12:00 +39°C° 0 mm 8 mps 671 mmHg 12%
    13:00 +39°C° 0 mm 8 mps 671 mmHg 12%
    14:00 +39°C° 0 mm 8 mps 671 mmHg 11%
    15:00 +39°C° 0 mm 8 mps 670 mmHg 11%
    16:00 +36°C° 0 mm 7 mps 670 mmHg 18%
    17:00 +34°C° 0 mm 6 mps 670 mmHg 24%
    18:00 +30°C° 0 mm 5 mps 670 mmHg 30%
    19:00 +28°C° 0 mm 5 mps 670 mmHg 42%
    20:00 +25°C° 0 mm 5 mps 670 mmHg 53%
    21:00 +22°C° 0 mm 5 mps 671 mmHg 64%
    22:00 +21°C° 0 mm 5 mps 671 mmHg 64%
    23:00 +20°C° 0 mm 5 mps 671 mmHg 63%
    Show more